Time,TemperatureF,DewpointF,PressureIn,WindDirection,WindDirectionDegrees,WindSpeedMPH,WindSpeedGustMPH,Humidity,HourlyPrecipIn,Conditions,Clouds,dailyrainin,SoftwareType,DateUTC
2013-02-24 19:04:00,45.5,29.8,30.18,SSE,158,0.0,0.0,54,0.00,,,0.00,WSDL version 342,2013-02-25 03:04:00,
2013-02-24 19:09:00,45.3,30.0,30.18,SSE,158,1.5,3.4,55,0.00,,,0.00,WSDL version 342,2013-02-25 03:09:00,
2013-02-24 19:15:00,45.1,29.9,30.18,SSE,158,0.0,3.8,55,0.00,,,0.00,WSDL version 342,2013-02-25 03:15:00,
2013-02-24 19:24:00,44.8,30.5,30.15,SSE,158,2.6,5.4,57,-99.99,,,-99.99,WSDL version 342,2013-02-25 03:24:00,
2013-02-24 19:32:00,44.8,30.5,30.15,North,0,0.0,4.0,57,0.00,,,0.00,WSDL version 342,2013-02-25 03:32:00,
2013-02-24 19:38:00,44.2,30.8,30.15,SSE,158,0.6,0.0,59,0.00,,,0.00,WSDL version 342,2013-02-25 03:38:00,
2013-02-24 19:44:00,44.2,31.2,30.15,SSE,158,1.3,3.6,60,0.00,,,0.00,WSDL version 342,2013-02-25 03:44:00,
2013-02-24 19:55:00,44.2,31.7,-100.00,North,0,0.0,3.4,61,0.00,,,0.00,WSDL version 342,2013-02-25 03:55:00,
2013-02-24 20:03:00,44.1,31.9,-100.00,SSE,158,3.4,5.8,62,-99.99,,,-99.99,WSDL version 342,2013-02-25 04:03:00,
2013-02-24 20:13:00,44.1,32.3,30.18,North,0,0.0,1.6,63,0.00,,,0.00,WSDL version 342,2013-02-25 04:13:00,
2013-02-24 20:23:00,44.0,32.5,30.15,SSE,158,2.0,4.0,64,0.00,,,0.00,WSDL version 342,2013-02-25 04:23:00,
2013-02-24 20:45:00,43.9,32.9,30.15,North,0,0.0,5.4,65,0.00,,,0.00,WSDL version 342,2013-02-25 04:45:00,
2013-02-24 20:55:00,43.9,33.3,30.15,South,180,0.0,3.4,66,0.00,,,0.00,WSDL version 342,2013-02-25 04:55:00,
2013-02-24 21:05:00,43.9,33.3,30.15,SSE,158,0.0,0.9,66,-99.99,,,-99.99,WSDL version 342,2013-02-25 05:05:00,
2013-02-24 21:11:00,43.7,33.1,-100.00,South,176,0.0,0.9,66,-99.99,,,-99.99,WSDL version 342,2013-02-25 05:11:00,
2013-02-24 21:16:00,43.7,33.5,-100.00,SSE,158,0.0,0.0,67,-99.99,,,-99.99,WSDL version 342,2013-02-25 05:16:00,
2013-02-24 21:31:00,43.7,33.5,-100.00,SSE,158,0.0,0.0,67,0.00,,,0.00,WSDL version 342,2013-02-25 05:31:00,
2013-02-24 21:39:00,43.7,33.8,-100.00,SE,135,0.0,0.0,68,0.00,,,0.00,WSDL version 342,2013-02-25 05:39:00,
2013-02-24 21:46:00,43.7,33.8,30.15,North,0,0.0,0.0,68,-99.99,,,-99.99,WSDL version 342,2013-02-25 05:46:00,
2013-02-24 21:52:00,43.7,33.8,30.12,SE,135,0.0,0.0,68,0.00,,,0.00,WSDL version 342,2013-02-25 05:52:00,
2013-02-24 22:10:00,43.5,33.7,30.12,North,0,0.0,0.9,68,0.00,,,0.00,WSDL version 342,2013-02-25 06:10:00,
2013-02-24 22:16:00,43.5,33.7,-100.00,SSE,150,4.3,4.7,68,0.00,,,0.00,WSDL version 342,2013-02-25 06:16:00,